Back to catalog

DELTA 1 DEB

AliveSSO
NORAD 10755·DEBRIS·🇺🇸 United States

Launched Jul 29, 1976 from Vandenberg Space Force Base

Loading…

Next Passes (next 24 hours)

TLE

FreshSource: Space-Track

Epoch: Sep 14, 2026, 10:28 UTC

1 10755U 76077BC  26257.43678214 -.00000043  00000-0  31952-4 0  9994
2 10755 102.5914 235.9923 0080671 223.1805 291.7226 12.26086019244057

Track DELTA 1 DEB in real time with AllMySat

Download on the App Store